[[{"header":{"parameterUnit":"m.s-1","parameterCategory":1,"la1":30.2992,"la2":30.254,"lo1":-89.0895,"lo2":-89.0443,"dy":0.0025,"dx":0.0025,"nx":19,"ny":19,"refTime":"2026-03-12T21:00:00:Z","depth":0,"parameterNumber":2,"parameterNumberName":"U-component_of_WINDS"},"data":[0,0,0,-3.6421,-3.6426,-3.6668,-3.6669,-3.7014,-3.7018,0,0,0,0,0,0,0,0,0,0,0,-3.637,-3.6373,-3.642,-3.6427,-3.6668,-3.6669,-3.7014,-3.7018,0,0,0,0,0,0,0,0,0,0,0,-3.6369,-3.6372,-3.6376,-3.6428,-3.6668,-3.6669,-3.7013,-3.6818,0,0,0,0,0,0,0,0,0,0,-3.6578,-3.6551,-3.6371,-3.6376,-3.6429,-3.6667,-3.6669,-3.6808,-3.683,-3.692,0,-3.7004,0,-3.7017,-3.7043,-3.7045,0,0,0,-3.6412,-3.6533,-3.6578,-3.6377,-3.6432,-3.6667,-3.6555,-3.682,-3.6845,-3.695,-3.7009,-3.7021,-3.7022,-3.7046,-3.7048,-3.7609,-3.7612,0,0,-3.6399,-3.6425,-3.6561,-3.6596,-3.6558,-3.6547,-3.6563,-3.6835,-3.6902,-3.701,-3.7028,-3.7028,-3.7048,-3.7051,-3.7606,-3.761,0,0,0,-3.6371,-3.6417,-3.6455,-3.6582,-3.6623,-3.6555,-3.6572,-3.689,-3.69,-3.7032,-3.7032,-3.705,-3.7055,-3.7602,-3.7607,-3.7794,0,0,0,-3.6362,-3.64,-3.645,-3.6469,-3.6619,-3.6759,-3.6622,-3.6881,-3.6911,-3.703,-3.705,-3.7059,-3.7599,-3.7605,-3.7781,-3.7879,0,0,0,-3.6347,-3.6398,-3.644,-3.647,-3.6574,-3.6754,-3.6779,-3.6887,-3.6912,-3.7045,-3.706,-3.7596,-3.7604,-3.777,-3.786,-3.8032,0,0,0,-3.634,-3.6606,-3.6443,-3.674,-3.6572,-3.6867,-3.6777,-3.6996,-3.7133,-3.7052,-3.7599,-3.7607,-3.7766,-3.7848,-3.802,-3.8181,-3.8251,0,0,-3.669,-3.6649,-3.6821,-3.6682,-3.7012,-3.6828,-3.7187,-3.7289,-3.7279,-3.75,-3.7513,-3.7786,-3.7858,-3.803,-3.8636,-3.8692,0,0,0,-3.694,-3.7064,-3.7146,-3.7275,-3.7357,-3.7435,-3.7478,-3.7516,-3.7701,-3.7397,-3.7895,-3.7937,-3.8037,-3.8113,-3.816,-3.8243,-3.7643,-3.7643,-3.7642,-3.7474,-3.7443,-3.7726,-3.7725,-3.7852,-3.7892,-3.7992,-3.805,-3.7986,-3.8104,-3.8169,-3.854,-3.863,-3.8665,-3.8752,-3.8253,-3.8253,-3.8254,-3.8255,-3.7981,-3.8151,-3.8056,-3.8295,-3.8263,-3.8464,-3.8514,-3.8461,-3.8645,-3.8489,-3.8576,-3.8407,-3.8727,-3.8802,-3.8268,-3.8266,-3.8264,-3.8263,-3.8262,-3.8326,-3.8402,-3.844,-3.8622,-3.8767,-3.8757,-3.8937,-3.8902,-3.8871,-3.8956,-3.902,-3.9017,-3.9008,-3.8989,-3.899,-3.8992,-3.8993,-3.8994,-3.8995,-3.8667,-3.8705,-3.8859,-3.8966,-3.9043,-3.914,-3.9183,-3.9259,-3.9334,-3.9294,-3.9295,-3.9218,-3.8764,-3.865,-3.9014,-3.9011,-3.9008,-3.9006,-3.9005,-3.9191,-3.9066,-3.9304,-3.9381,-3.9503,-3.9647,-3.96,-3.9757,-3.9815,-3.9904,-3.9809,-3.948,-3.9436,-3.9398,-3.9303,-3.9815,-3.9815,-3.9815,-3.9815,-3.948,-3.9453,-3.9687,-3.9812,-3.9931,-3.9911,-4.0182,-4.0218,-4.0236,-4.027,-4.0191,-4.0063,-4.0025,-4.0004,-3.9953,-3.9863,-4.0506,-4.0507,-4.0508,-3.9799,-3.9782,-4.0018,-4.003,-4.0123,-4.0204,-4.0456,-4.0605,-4.06,-4.0535,-4.0295,-4.0266,-4.0058,-3.9993,-3.9921,-3.9843,-3.9678,0,0]},{"header":{"parameterUnit":"m.s-1","parameterCategory":1,"la1":30.2992,"la2":30.254,"lo1":-89.0895,"lo2":-89.0443,"dy":0.0025,"dx":0.0025,"nx":19,"ny":19,"refTime":"2026-03-12T21:00:00:Z","depth":0,"parameterNumber":3,"parameterNumberName":"V-component_of_WINDS"},"data":[0,0,0,-1.2744,-1.2743,-1.2742,-1.2742,-1.2723,-1.2723,0,0,0,0,0,0,0,0,0,0,0,-1.2736,-1.2735,-1.2744,-1.2743,-1.2742,-1.2742,-1.2723,-1.2723,0,0,0,0,0,0,0,0,0,0,0,-1.2736,-1.2735,-1.2735,-1.2743,-1.2742,-1.2742,-1.2723,-1.273,0,0,0,0,0,0,0,0,0,0,-1.2734,-1.272,-1.2736,-1.2735,-1.2743,-1.2742,-1.2742,-1.2731,-1.273,-1.2717,0,-1.2706,0,-1.2714,-1.2721,-1.2721,0,0,0,-1.2749,-1.272,-1.2727,-1.2735,-1.2743,-1.2742,-1.2744,-1.273,-1.2729,-1.2716,-1.2706,-1.2705,-1.2714,-1.2721,-1.272,-1.2631,-1.263,0,0,-1.2749,-1.2731,-1.2728,-1.2726,-1.2727,-1.2744,-1.2744,-1.273,-1.2717,-1.2706,-1.2705,-1.2713,-1.272,-1.272,-1.2631,-1.2631,0,0,0,-1.2746,-1.2731,-1.2738,-1.2727,-1.2728,-1.2744,-1.2744,-1.2718,-1.2722,-1.2705,-1.2713,-1.272,-1.272,-1.2632,-1.2631,-1.2577,0,0,0,-1.2746,-1.2729,-1.2738,-1.2727,-1.2728,-1.2723,-1.2732,-1.2723,-1.2722,-1.2713,-1.272,-1.2719,-1.2633,-1.2632,-1.258,-1.2553,0,0,0,-1.2739,-1.2728,-1.2725,-1.2726,-1.2725,-1.2724,-1.2727,-1.2723,-1.2726,-1.2721,-1.2719,-1.2634,-1.2632,-1.2583,-1.2558,-1.2521,0,0,0,-1.2725,-1.2678,-1.2724,-1.2674,-1.2725,-1.2691,-1.2728,-1.2704,-1.2693,-1.272,-1.2633,-1.2631,-1.2584,-1.2561,-1.2524,-1.2485,-1.2468,0,0,-1.2655,-1.2669,-1.2641,-1.2682,-1.2635,-1.2693,-1.2638,-1.2646,-1.2662,-1.264,-1.2638,-1.2579,-1.2558,-1.2522,-1.2384,-1.237,0,0,0,-1.2613,-1.2592,-1.2584,-1.2572,-1.2577,-1.2577,-1.2596,-1.2598,-1.2579,-1.2647,-1.2558,-1.2546,-1.2526,-1.2508,-1.2496,-1.2478,-1.2623,-1.2623,-1.2623,-1.2486,-1.2509,-1.2463,-1.2485,-1.2473,-1.2491,-1.2482,-1.2488,-1.2517,-1.2494,-1.2487,-1.24,-1.2379,-1.237,-1.2351,-1.2471,-1.2471,-1.2471,-1.247,-1.2383,-1.2355,-1.2392,-1.236,-1.2384,-1.2357,-1.2371,-1.2391,-1.2367,-1.2409,-1.2392,-1.2432,-1.2354,-1.2338,-1.2467,-1.2467,-1.2468,-1.2468,-1.2468,-1.23,-1.229,-1.2294,-1.2277,-1.2262,-1.2286,-1.226,-1.2284,-1.2306,-1.2289,-1.2281,-1.2282,-1.2283,-1.2285,-1.2284,-1.2284,-1.2284,-1.2283,-1.2283,-1.2211,-1.2217,-1.2193,-1.2192,-1.2186,-1.2181,-1.2196,-1.2191,-1.219,-1.2208,-1.2208,-1.2235,-1.2344,-1.2368,-1.2279,-1.2279,-1.228,-1.228,-1.2281,-1.2092,-1.2122,-1.2086,-1.2079,-1.2078,-1.2058,-1.2089,-1.2074,-1.2073,-1.2058,-1.209,-1.2167,-1.2182,-1.2192,-1.2212,-1.2087,-1.2087,-1.2087,-1.2087,-1.2019,-1.203,-1.1996,-1.1983,-1.1974,-1.1997,-1.1951,-1.1961,-1.1977,-1.1977,-1.1999,-1.2029,-1.2038,-1.2048,-1.206,-1.2079,-1.1924,-1.1924,-1.1923,-1.1946,-1.1956,-1.1913,-1.193,-1.193,-1.1928,-1.1885,-1.1867,-1.1891,-1.1917,-1.1976,-1.1983,-1.2032,-1.2047,-1.2072,-1.2091,-1.2127,0,0]}]]